Weather History for Big Bear City, CA

Change the Weather History Date:

Wednesday, March 12, 2014

  Actual Average (KBUO) Record (KBUO)
Temperature  
Mean Temperature 32 °F -  
Max Temperature 42 °F 63 °F 77 °F (1997)
Min Temperature 21 °F 42 °F 41 °F (2001)
Degree Days  
Heating Degree Days 34    
Moisture  
Dew Point 13 °F    
Average Humidity 47    
Maximum Humidity 68    
Minimum Humidity 28    
Precipitation  
Precipitation 0.00 in - - ()
Sea Level Pressure  
Sea Level Pressure 30.14 in    
Wind  
Wind Speed 4 mph (ENE)    
Max Wind Speed 14 mph    
Max Gust Speed 18 mph    
Visibility 10 miles    
Events      
Averages and records for this station are not official NWS values.
T = Trace of Precipitation, MM = Missing Value Source: NWS Daily Summary

Daily Weather History Graph

Daily Weather History Graph

Search for Another Location

Airport:

Trip Planner

Search our weather history database for the weather conditions in past years. The results will help you decide how hot, cold, wet, or windy it might be!

Date:

Astronomy

Mar. 12, 2014 Rise Set
Actual Time 7:01 AM PDT 6:52 PM PDT
Civil Twilight 6:36 AM PDT 7:17 PM PDT
Nautical Twilight 6:07 AM PDT 7:46 PM PDT
Astronomical Twilight 5:38 AM PDT 8:16 PM PDT
Moon 3:34 PM PDT (3/12) 4:28 AM PDT (3/12)
Length of Visible Light 12h 41m
Length of Day
11h 50m
Waxing Gibbous, 86% of the Moon is Illuminated
Mar 12
Waxing Gibbous
Mar 16
Full
Mar 23
Last Quarter
Mar 30
New
Apr 7
First Quarter

Hourly Weather History & Observations

Time (PDT) Temp. Windchill Dew Point Humidity Pressure Visibility Wind Dir Wind Speed Gust Speed Precip Events Conditions
12:15 AM 28.4 °F - 14.0 °F 55% 30.17 in 10.0 mi Calm Calm - N/A   Clear
12:35 AM 28.4 °F - 14.0 °F 55% 30.17 in 10.0 mi Calm Calm - N/A   Clear
12:55 AM 26.6 °F - 14.0 °F 59% 30.17 in 10.0 mi Calm Calm - N/A   Clear
1:15 AM 26.6 °F - 14.0 °F 59% 30.16 in 10.0 mi Calm Calm - N/A   Clear
1:35 AM 26.6 °F - 14.0 °F 59% 30.16 in 10.0 mi Calm Calm - N/A   Clear
1:55 AM 26.6 °F - 14.0 °F 59% 30.16 in 10.0 mi Calm Calm - N/A   Clear
2:15 AM 26.6 °F - 14.0 °F 59% 30.16 in 10.0 mi Calm Calm - N/A   Clear
2:35 AM 24.8 °F 20.5 °F 12.2 °F 59% 30.15 in 10.0 mi SE 3.5 mph - N/A   Clear
2:55 AM 24.8 °F - 12.2 °F 59% 30.15 in 10.0 mi Calm Calm - N/A   Clear
3:15 AM 24.8 °F - 10.4 °F 54% 30.14 in 10.0 mi Calm Calm - N/A   Clear
3:35 AM 24.8 °F - 12.2 °F 59% 30.14 in 10.0 mi Calm Calm - N/A   Clear
3:55 AM 23.0 °F - 12.2 °F 63% 30.14 in 10.0 mi Calm Calm - N/A   Clear
4:15 AM 23.0 °F - 12.2 °F 63% 30.14 in 10.0 mi Calm Calm - N/A   Clear
4:35 AM 23.0 °F 17.0 °F 12.2 °F 63% 30.14 in 10.0 mi East 4.6 mph - N/A   Clear
4:55 AM 23.0 °F - 12.2 °F 63% 30.15 in 10.0 mi Calm Calm - N/A   Clear
5:15 AM 23.0 °F 18.4 °F 12.2 °F 63% 30.14 in 10.0 mi East 3.5 mph - N/A   Clear
5:35 AM 21.2 °F 14.9 °F 12.2 °F 68% 30.15 in 10.0 mi East 4.6 mph - N/A   Clear
5:55 AM 21.2 °F - 12.2 °F 68% 30.15 in 10.0 mi Calm Calm - N/A   Clear
6:15 AM 21.2 °F - 12.2 °F 68% 30.15 in 10.0 mi Calm Calm - N/A   Clear
6:35 AM 21.2 °F 16.4 °F 12.2 °F 68% 30.16 in 10.0 mi East 3.5 mph - N/A   Clear
6:55 AM 21.2 °F - 12.2 °F 68% 30.16 in 10.0 mi Calm Calm - N/A   Clear
7:15 AM 21.2 °F 16.4 °F 12.2 °F 68% 30.16 in 10.0 mi East 3.5 mph - N/A   Clear
7:35 AM 21.2 °F 16.4 °F 12.2 °F 68% 30.16 in 10.0 mi East 3.5 mph - N/A   Clear
7:55 AM 23.0 °F 18.4 °F 12.2 °F 63% 30.16 in 10.0 mi ENE 3.5 mph - N/A   Clear
8:15 AM 26.6 °F 21.2 °F 14.0 °F 59% 30.17 in 10.0 mi ENE 4.6 mph - N/A   Clear
8:35 AM 32.0 °F 28.7 °F 14.0 °F 48% 30.17 in 10.0 mi East 3.5 mph - N/A   Clear
8:55 AM 33.8 °F 26.4 °F 10.4 °F 38% 30.18 in 10.0 mi ENE 9.2 mph - N/A   Clear
9:15 AM 33.8 °F 25.8 °F 10.4 °F 38% 30.19 in 10.0 mi ENE 10.4 mph - N/A   Clear
9:35 AM 35.6 °F 28.0 °F 10.4 °F 35% 30.19 in 10.0 mi NE 10.4 mph - N/A   Clear
9:55 AM 35.6 °F 27.1 °F 10.4 °F 35% 30.19 in 10.0 mi ENE 12.7 mph - N/A   Clear
10:15 AM 35.6 °F 27.1 °F 8.6 °F 33% 30.19 in 10.0 mi ENE 12.7 mph - N/A   Clear
10:35 AM 37.4 °F 30.3 °F 8.6 °F 30% 30.18 in 10.0 mi ENE 10.4 mph - N/A   Clear
10:55 AM 37.4 °F 29.3 °F 8.6 °F 30% 30.17 in 10.0 mi East 12.7 mph - N/A   Clear
11:15 AM 39.2 °F 33.6 °F 8.6 °F 28% 30.17 in 10.0 mi NNE 8.1 mph - N/A   Clear
11:35 AM 39.2 °F 32.0 °F 8.6 °F 28% 30.17 in 10.0 mi ENE 11.5 mph 18.4 mph N/A   Clear
11:55 AM 41.0 °F 33.5 °F 10.4 °F 29% 30.17 in 10.0 mi ENE 13.8 mph - N/A   Clear
12:15 PM 41.0 °F 35.2 °F 12.2 °F 31% 30.17 in 10.0 mi ENE 9.2 mph - N/A   Clear
12:35 PM 41.0 °F 35.2 °F 12.2 °F 31% 30.16 in 10.0 mi East 9.2 mph - N/A   Clear
12:55 PM 41.0 °F 35.2 °F 12.2 °F 31% 30.16 in 10.0 mi East 9.2 mph - N/A   Clear
1:15 PM 42.8 °F 36.2 °F 12.2 °F 29% 30.14 in 10.0 mi ENE 12.7 mph - N/A   Clear
1:35 PM 42.8 °F 37.0 °F 12.2 °F 29% 30.14 in 10.0 mi ENE 10.4 mph 17.3 mph N/A   Clear
1:55 PM 41.0 °F 34.7 °F 12.2 °F 31% 30.13 in 10.0 mi NE 10.4 mph 17.3 mph N/A   Clear
2:15 PM 42.8 °F 36.6 °F 14.0 °F 31% 30.12 in 10.0 mi ENE 11.5 mph 18.4 mph N/A   Clear
2:35 PM 42.8 °F 36.6 °F 14.0 °F 31% 30.12 in 10.0 mi East 11.5 mph 17.3 mph N/A   Clear
2:55 PM 42.8 °F 36.2 °F 14.0 °F 31% 30.12 in 10.0 mi ENE 12.7 mph 18.4 mph N/A   Clear
3:15 PM 42.8 °F 36.6 °F 14.0 °F 31% 30.12 in 10.0 mi East 11.5 mph 16.1 mph N/A   Clear
3:35 PM 42.8 °F 37.0 °F 14.0 °F 31% 30.11 in 10.0 mi ENE 10.4 mph 16.1 mph N/A   Clear
3:55 PM 42.8 °F 35.8 °F 14.0 °F 31% 30.11 in 10.0 mi ENE 13.8 mph - N/A   Clear
4:15 PM 42.8 °F 36.6 °F 14.0 °F 31% 30.11 in 10.0 mi NE 11.5 mph - N/A   Clear
4:35 PM 42.8 °F 38.6 °F 14.0 °F 31% 30.10 in 10.0 mi NE 6.9 mph - N/A   Clear
4:55 PM 42.8 °F 37.5 °F 14.0 °F 31% 30.10 in 10.0 mi NE 9.2 mph - N/A   Clear
5:15 PM 42.8 °F 37.5 °F 14.0 °F 31% 30.09 in 10.0 mi ENE 9.2 mph - N/A   Clear
5:35 PM 42.8 °F 37.0 °F 14.0 °F 31% 30.09 in 10.0 mi ENE 10.4 mph - N/A   Clear
5:55 PM 41.0 °F 35.2 °F 14.0 °F 33% 30.10 in 10.0 mi NE 9.2 mph - N/A   Clear
6:15 PM 41.0 °F 35.2 °F 14.0 °F 33% 30.10 in 10.0 mi NE 9.2 mph - N/A   Clear
6:35 PM 39.2 °F 34.2 °F 14.0 °F 36% 30.10 in 10.0 mi ENE 6.9 mph - N/A   Clear
6:55 PM 37.4 °F 32.1 °F 14.0 °F 38% 30.10 in 10.0 mi ENE 6.9 mph - N/A   Clear
7:15 PM 37.4 °F 33.8 °F 14.0 °F 38% 30.10 in 10.0 mi East 4.6 mph - N/A   Clear
7:35 PM 35.6 °F 32.8 °F 15.8 °F 44% 30.10 in 10.0 mi East 3.5 mph - N/A   Clear
7:55 PM 33.8 °F - 15.8 °F 48% 30.10 in 10.0 mi Calm Calm - N/A   Clear
8:15 PM 33.8 °F - 15.8 °F 48% 30.11 in 10.0 mi Calm Calm - N/A   Clear
8:35 PM 33.8 °F - 15.8 °F 48% 30.11 in 10.0 mi Calm Calm - N/A   Clear
8:55 PM 32.0 °F - 17.6 °F 55% 30.11 in 10.0 mi Calm Calm - N/A   Clear
9:15 PM 30.2 °F - 15.8 °F 55% 30.11 in 10.0 mi Calm Calm - N/A   Clear
9:35 PM 28.4 °F - 15.8 °F 59% 30.11 in 10.0 mi Calm Calm - N/A   Clear
9:55 PM 28.4 °F - 15.8 °F 59% 30.12 in 10.0 mi Calm Calm - N/A   Clear
10:15 PM 28.4 °F - 15.8 °F 59% 30.12 in 10.0 mi Calm Calm - N/A   Clear
10:35 PM 28.4 °F - 15.8 °F 59% 30.11 in 10.0 mi Calm Calm - N/A   Clear
10:55 PM 28.4 °F - 15.8 °F 59% 30.11 in 10.0 mi Calm Calm - N/A   Clear
11:15 PM 26.6 °F - 15.8 °F 64% 30.11 in 10.0 mi Calm Calm - N/A   Clear
11:35 PM 26.6 °F - 15.8 °F 64% 30.11 in 10.0 mi Calm Calm - N/A   Clear
11:55 PM 26.6 °F - 15.8 °F 64% 30.10 in 10.0 mi Calm Calm - N/A   Clear